Summer school for satellite navigation Young engineers and scientists from all over the world will gather this summer in Denmark to study navigation by satellite, devising new scientific and technical improvements, products and services. A jury of experts from several European universities a...
Orbital elements: 2010 MR Earth MOID = 0.1265 AU Epoch 2010 July 23.0 TT = JDT 2455400.5 MPC M 316.00098 (2000.0) P Q n 0.27855902 Peri. 81.94677 +0.98443958 -0.16404187 a 2.3219769 Node 287.47786 +0.12362827 +0.90133282 e 0.5232721 Incl. 3.78709 +0.12487899 +0.40086083 P 3.54 H 18.0 G 0.15 U 9 [ur...
ARTIST: Snow Patrol ALBUM: A Hundred Million Suns Snow Patrol has an unusual fetish, and it's astronomy. In previous albums, phrases that referenced "Saturn's rings," would sneak themselves into the lyrics. However, Snow Patrol's fifth album is a big bang explosion of language litte...
Title: Discovery of the Eclipsing Detached Double White Dwarf Binary NLTT 11748 Authors: Justin D. R. Steinfadt, David L. Kaplan, Avi Shporer, Lars Bildsten, Steve B. Howell We report the discovery of the first eclipsing detached double white dwarf (WD) binary. In a pulsation search, the low-mas...
Title: The Galactic Centre star S2 as a dynamical probe for intermediate-mass black holes Authors: Alessia Gualandris, Stefan Gillessen, David Merritt We study the short-term effects of an intermediate mass black hole (IBH) on the orbit of star S2 (S02), the shortest period star known to orbit th...
Orbital elements: 2010 MG1 Earth MOID = 0.0356 AU Epoch 2010 July 23.0 TT = JDT 2455400.5 MPC M 356.43334 (2000.0) P Q n 0.35227335 Peri. 49.84697 +0.67881428 +0.72547743 a 1.9855593 Node 263.29371 -0.70368917 +0.59849376 e 0.5100287 Incl. 6.56513 -0.20983977 +0.33983485 P 2.80 H 23.3 G 0.15 U 9 [u...
Orbital elements: 2010 MH1 Earth MOID = 0.1729 AU Epoch 2010 July 23.0 TT = JDT 2455400.5 MPC M 106.75427 (2000.0) P Q n 0.82562810 Peri. 21.80088 -0.82504564 -0.53574703 a 1.1253296 Node 124.54627 +0.48086244 -0.83264609 e 0.3294838 Incl. 12.59816 +0.29676761 -0.14026977 P 1.19 H 20.9 G 0.15 U 9 [...
Orbital elements: 2010 LU108 Earth MOID = 0.1138 AU Epoch 2010 July 23.0 TT = JDT 2455400.5 MPC M 36.06102 (2000.0) P Q n 0.38602030 Peri. 20.92046 -0.99689236 -0.05269945 a 1.8680821 Node 155.83310 +0.03471641 -0.96111180 e 0.7623501 Incl. 8.22272 +0.07071342 -0.27108463 P 2.55 H 20.2 G 0.15 U 9 [...
International Astronomical Union (IAU) Symposium 271 on ''Astrophysical Dynamics: From Stars to Galaxies'' to be held at the Grand Hotel Aston, Nice, France from June 21-25, 2010. Read more
A geologist whose paper appears in Buhi Online Magazine has an even more exciting story about this hill. Chris Newhall of the University of Washington in Seattle, talks about the eruptions that created massive landslides around Mt. Asog. Engaging is how he fuses folklore and science to explain th...
Orbital elements: 2010 LJ68 Earth MOID = 0.0361 AU Epoch 2010 July 23.0 TT = JDT 2455400.5 MPC M 34.14141 (2000.0) P Q n 0.40265654 Peri. 37.15370 -0.92517897 +0.37038000 a 1.8162664 Node 163.96174 -0.37805211 -0.91860368 e 0.4669608 Incl. 17.44817 +0.03347335 -0.13778945 P 2.45 H 22.5 G 0.15 U 9 [...
Orbital elements: 2010 LZ63 PHA, Earth MOID = 0.0434 AU Epoch 2010 July 23.0 TT = JDT 2455400.5 MPC M 350.23187 (2000.0) P Q n 0.43039724 Peri. 84.03405 +0.85796808 -0.46952899 a 1.7373597 Node 303.79071 +0.31282665 +0.79933981 e 0.7439521 Incl. 14.52294 +0.40746812 +0.37496453 P 2.29 H 20.0 G 0....
Orbital elements: 2010 MV Earth MOID = 0.0696 AU Epoch 2010 July 23.0 TT = JDT 2455400.5 MPC M 18.78502 (2000.0) P Q n 0.33871657 Peri. 156.25512 -0.45510397 +0.88960587 a 2.0381920 Node 86.65402 -0.82301309 -0.40374784 e 0.4697519 Incl. 2.20985 -0.33989679 -0.21351601 P 2.91 H 24.6 G 0.15 U 8 [url...